Weather History for Pratt, KS

Change the Weather History Date:

Monday, May 27, 2013

  Actual Average (KP28) Record (KP28)
Temperature  
Mean Temperature 78 °F 71 °F  
Max Temperature 89 °F 83 °F 100 °F (1896)
Min Temperature 68 °F 59 °F 44 °F (1992)
Degree Days  
Heating Degree Days 0 1  
Month to date heating degree days 69  
Since 1 July heating degree days 4454  
Cooling Degree Days 14 7  
Month to date cooling degree days 104  
Year to date cooling degree days 128  
Growing Degree Days 28 (Base 50)    
Moisture  
Dew Point 64 °F    
Average Humidity 66    
Maximum Humidity 88    
Minimum Humidity 40    
Precipitation  
Precipitation 0.00 in 0.11 in 2.90 in (1900)
Month to date precipitation 2.77  
Year to date precipitation 9.21  
Snow  
Snow 0.00 in 0.00 in - ()
Month to date snowfall 0.0  
Since 1 July snowfall 8.5  
Snow Depth -    
Sea Level Pressure  
Sea Level Pressure 29.69 in    
Wind  
Wind Speed 23 mph (South)    
Max Wind Speed 32 mph    
Max Gust Speed 43 mph    
Visibility 10 miles    
Events      
T = Trace of Precipitation, MM = Missing Value Source: NWS Daily Summary

Daily Weather History Graph

Daily Weather History Graph

Search for Another Location

Airport:

Trip Planner

Search our weather history database for the weather conditions in past years. The results will help you decide how hot, cold, wet, or windy it might be!

Date:

Astronomy

May. 27, 2013 Rise Set
Actual Time 6:17 AM CDT 8:47 PM CDT
Civil Twilight 5:46 AM CDT 9:18 PM CDT
Nautical Twilight 5:09 AM CDT 9:55 PM CDT
Astronomical Twilight 4:27 AM CDT 10:37 PM CDT
Moon 11:29 PM CDT (5/27) 8:55 AM CDT (5/27)
Length of Visible Light 15h 31m
Length of Day
14h 30m
Waning Gibbous, 91% of the Moon is Illuminated
May 27
Waning Gibbous
May 31
Last Quarter
Jun 8
New
Jun 16
First Quarter
Jun 23
Full

Hourly Weather History & Observations

Time (CDT) Temp. Heat Index Dew Point Humidity Pressure Visibility Wind Dir Wind Speed Gust Speed Precip Events Conditions
12:15 AM 71.6 °F - 66.2 °F 83% 29.83 in 10.0 mi South 23.0 mph 31.1 mph N/A   Clear
12:35 AM 71.6 °F - 66.2 °F 83% 29.82 in 10.0 mi South 26.5 mph 34.5 mph N/A   Clear
12:55 AM 71.6 °F - 66.2 °F 83% 29.82 in 10.0 mi South 24.2 mph 33.4 mph N/A   Clear
1:15 AM 71.6 °F - 66.2 °F 83% 29.81 in 10.0 mi South 21.9 mph 26.5 mph N/A   Clear
1:35 AM 69.8 °F - 66.2 °F 88% 29.81 in 10.0 mi South 21.9 mph 27.6 mph N/A   Clear
1:55 AM 69.8 °F - 66.2 °F 88% 29.80 in 10.0 mi South 21.9 mph 27.6 mph N/A   Clear
2:15 AM 69.8 °F - 66.2 °F 88% 29.79 in 10.0 mi South 21.9 mph 27.6 mph N/A   Clear
2:35 AM 69.8 °F - 66.2 °F 88% 29.78 in 10.0 mi South 21.9 mph 28.8 mph N/A   Clear
2:55 AM 69.8 °F - 66.2 °F 88% 29.78 in 10.0 mi South 19.6 mph 29.9 mph N/A   Clear
3:15 AM 69.8 °F - 66.2 °F 88% 29.77 in 10.0 mi South 18.4 mph 27.6 mph N/A   Clear
3:35 AM 69.8 °F - 66.2 °F 88% 29.76 in 10.0 mi South 23.0 mph 31.1 mph N/A   Clear
3:55 AM 69.8 °F - 66.2 °F 88% 29.75 in 10.0 mi South 19.6 mph 28.8 mph N/A   Clear
4:15 AM 69.8 °F - 64.4 °F 83% 29.74 in 10.0 mi South 21.9 mph 27.6 mph N/A   Clear
4:35 AM 69.8 °F - 64.4 °F 83% 29.74 in 10.0 mi South 19.6 mph 28.8 mph N/A   Clear
4:55 AM 69.8 °F - 64.4 °F 83% 29.74 in 10.0 mi South 19.6 mph 28.8 mph N/A   Clear
5:15 AM 69.8 °F - 64.4 °F 83% 29.74 in 10.0 mi South 19.6 mph 25.3 mph N/A   Clear
5:35 AM 68.0 °F - 64.4 °F 88% 29.73 in 10.0 mi South 20.7 mph 27.6 mph N/A   Clear
5:55 AM 68.0 °F - 64.4 °F 88% 29.73 in 10.0 mi South 21.9 mph 25.3 mph N/A   Clear
6:15 AM 68.0 °F - 64.4 °F 88% 29.73 in 10.0 mi South 18.4 mph 25.3 mph N/A   Clear
6:35 AM 68.0 °F - 64.4 °F 88% 29.73 in 10.0 mi South 19.6 mph 26.5 mph N/A   Clear
6:55 AM 68.0 °F - 64.4 °F 88% 29.74 in 10.0 mi South 17.3 mph 24.2 mph N/A   Clear
7:15 AM 69.8 °F - 64.4 °F 83% 29.73 in 10.0 mi South 21.9 mph 25.3 mph N/A   Clear
7:35 AM 69.8 °F - 64.4 °F 83% 29.73 in 10.0 mi South 23.0 mph 28.8 mph N/A   Clear
7:55 AM 71.6 °F - 64.4 °F 78% 29.74 in 10.0 mi South 19.6 mph 26.5 mph N/A   Clear
8:15 AM 71.6 °F - 64.4 °F 78% 29.74 in 10.0 mi South 23.0 mph 26.5 mph N/A   Clear
8:35 AM 71.6 °F - 64.4 °F 78% 29.73 in 10.0 mi South 21.9 mph 31.1 mph N/A   Clear
8:55 AM 73.4 °F - 64.4 °F 73% 29.72 in 10.0 mi SSW 25.3 mph 35.7 mph N/A   Clear
9:15 AM 73.4 °F - 64.4 °F 73% 29.72 in 10.0 mi SSW 25.3 mph 32.2 mph N/A   Clear
9:35 AM 77.0 °F - 64.4 °F 65% 29.71 in 10.0 mi SSW 26.5 mph 35.7 mph N/A   Clear
9:55 AM 77.0 °F - 64.4 °F 65% 29.71 in 10.0 mi SSW 25.3 mph 33.4 mph N/A   Clear
10:15 AM 78.8 °F - 64.4 °F 61% 29.71 in 10.0 mi SSW 26.5 mph 34.5 mph N/A   Clear
10:35 AM 78.8 °F - 64.4 °F 61% 29.71 in 10.0 mi SSW 23.0 mph 32.2 mph N/A   Clear
10:55 AM 78.8 °F - 64.4 °F 61% 29.71 in 10.0 mi SSW 27.6 mph 32.2 mph N/A   Clear
11:15 AM 80.6 °F 82.3 °F 64.4 °F 58% 29.71 in 10.0 mi SSW 27.6 mph 33.4 mph N/A   Clear
11:35 AM 82.4 °F 83.9 °F 64.4 °F 54% 29.70 in 10.0 mi South 27.6 mph 32.2 mph N/A   Clear
11:55 AM 84.2 °F 85.6 °F 64.4 °F 51% 29.70 in 10.0 mi South 27.6 mph 31.1 mph N/A   Clear
12:15 PM 84.2 °F 85.6 °F 64.4 °F 51% 29.70 in 10.0 mi South 27.6 mph 32.2 mph N/A   Clear
12:35 PM 86.0 °F 87.3 °F 64.4 °F 48% 29.69 in 10.0 mi South 21.9 mph 33.4 mph N/A   Clear
12:55 PM 86.0 °F 87.3 °F 64.4 °F 48% 29.68 in 10.0 mi South 27.6 mph 32.2 mph N/A   Clear
1:15 PM 86.0 °F 87.3 °F 64.4 °F 48% 29.68 in 10.0 mi South 27.6 mph 38.0 mph N/A   Clear
1:35 PM 86.0 °F 87.3 °F 64.4 °F 48% 29.68 in 10.0 mi South 27.6 mph 34.5 mph N/A   Clear
1:55 PM 86.0 °F 87.3 °F 64.4 °F 48% 29.68 in 10.0 mi South 28.8 mph 36.8 mph N/A   Clear
2:15 PM 87.8 °F 88.5 °F 62.6 °F 43% 29.67 in 10.0 mi South 27.6 mph 34.5 mph N/A   Clear
2:35 PM 87.8 °F 88.5 °F 62.6 °F 43% 29.67 in 10.0 mi South 23.0 mph 32.2 mph N/A   Clear
2:55 PM 87.8 °F 88.5 °F 62.6 °F 43% 29.67 in 10.0 mi South 23.0 mph 34.5 mph N/A   Clear
3:15 PM 87.8 °F 88.5 °F 62.6 °F 43% 29.65 in 10.0 mi South 25.3 mph 33.4 mph N/A   Clear
3:35 PM 87.8 °F 88.5 °F 62.6 °F 43% 29.64 in 10.0 mi South 21.9 mph 34.5 mph N/A   Clear
3:55 PM 89.6 °F 90.1 °F 62.6 °F 40% 29.63 in 10.0 mi South 28.8 mph 35.7 mph N/A   Clear
4:15 PM 87.8 °F 88.5 °F 62.6 °F 43% 29.62 in 10.0 mi South 23.0 mph 31.1 mph N/A   Clear
4:35 PM 87.8 °F 88.5 °F 62.6 °F 43% 29.62 in 10.0 mi South 27.6 mph 34.5 mph N/A   Clear
4:55 PM 89.6 °F 90.1 °F 62.6 °F 40% 29.62 in 10.0 mi South 27.6 mph 42.6 mph N/A   Clear
5:15 PM 89.6 °F 90.1 °F 62.6 °F 40% 29.60 in 10.0 mi South 28.8 mph 36.8 mph N/A   Clear
5:35 PM 87.8 °F 88.5 °F 62.6 °F 43% 29.60 in 10.0 mi South 24.2 mph 34.5 mph N/A   Clear
5:55 PM 87.8 °F 88.5 °F 62.6 °F 43% 29.60 in 10.0 mi South 24.2 mph 34.5 mph N/A   Clear
6:15 PM 87.8 °F 89.4 °F 64.4 °F 46% 29.59 in 10.0 mi SSE 21.9 mph 31.1 mph N/A   Clear
6:35 PM 86.0 °F 87.3 °F 64.4 °F 48% 29.58 in 10.0 mi SSE 24.2 mph 31.1 mph N/A   Clear
6:55 PM 84.2 °F 85.6 °F 64.4 °F 51% 29.59 in 10.0 mi SSE 19.6 mph 31.1 mph N/A   Clear
7:15 PM 84.2 °F 86.6 °F 66.2 °F 55% 29.58 in 10.0 mi SSE 28.8 mph 34.5 mph N/A   Clear
7:35 PM 82.4 °F 83.9 °F 64.4 °F 54% 29.59 in 10.0 mi South 20.7 mph 31.1 mph N/A   Clear
7:55 PM 80.6 °F 82.7 °F 66.2 °F 61% 29.60 in 10.0 mi South 23.0 mph 33.4 mph N/A   Clear
8:15 PM 80.6 °F 82.3 °F 64.4 °F 58% 29.59 in 10.0 mi South 27.6 mph 34.5 mph N/A   Clear
8:35 PM 78.8 °F - 64.4 °F 61% 29.59 in 10.0 mi South 32.2 mph 39.1 mph N/A   Clear
8:55 PM 78.8 °F - 66.2 °F 65% 29.58 in 10.0 mi South 25.3 mph 40.3 mph N/A   Clear
9:15 PM 77.0 °F - 64.4 °F 65% 29.58 in 10.0 mi South 28.8 mph 39.1 mph N/A   Clear
9:35 PM 75.2 °F - 64.4 °F 69% 29.59 in 10.0 mi South 24.2 mph 33.4 mph N/A   Clear
9:55 PM 75.2 °F - 64.4 °F 69% 29.60 in 10.0 mi South 18.4 mph 32.2 mph N/A   Clear
10:15 PM 73.4 °F - 64.4 °F 73% 29.63 in 10.0 mi SSE 16.1 mph 21.9 mph N/A   Clear
10:35 PM 73.4 °F - 64.4 °F 73% 29.65 in 10.0 mi SSE 10.4 mph - N/A   Clear
10:55 PM 73.4 °F - 64.4 °F 73% 29.66 in 10.0 mi SSE 8.1 mph - N/A   Clear
11:15 PM 71.6 °F - 64.4 °F 78% 29.67 in 10.0 mi SE 4.6 mph - N/A   Clear
11:35 PM 71.6 °F - 64.4 °F 78% 29.67 in 10.0 mi SE 4.6 mph - N/A   Clear
11:55 PM 71.6 °F - 64.4 °F 78% 29.67 in 10.0 mi SSE 4.6 mph - N/A   Clear